Other Public Products
Issued by NWS Grand Forks, ND

Home | Current Version | Previous Version | Text Only | Print | Product List | Glossary Off
Versions: 1 2 3 4 5 6 7 8 9 10 11 12 13 14 15 16 17 18 19 20 21 22 23 24 25 26 27 28 29 30 31 32 33 34 35 36 37 38 39 40 41 42 43 44 45 46 47 48 49 50

641
FPUS83 KFGF 271431
OPUFGF
PRAIRIE TO PINES WEATHER ROUNDUP
NATIONAL WEATHER SERVICE EASTERN NORTH DAKOTA/GRAND FORKS ND
800 AM CST MON FEB 27 2017

 **SATELLITE DATA USED TO AUGMENT SKY COVER AT AUTOMATED STATIONS**
 *****  WEATHER ACROSS EASTERN NORTH DAKOTA  *****

CITY           SKY/WX    TMP DP  RH WIND       PRES   REMARKS
GRAND FORKS    CLOUDY    13   6  74 S5        29.90R WCI   5
GRAND FORKS AF FAIR      12   7  81 CALM      29.89S
GRAND CITY NWS NOT AVBL
BUXTON         NOT AVBL
DEVILS LAKE    CLOUDY    11   8  88 SW5       29.84S WCI   3
FARGO          FAIR      17  13  84 CALM      29.90S
WAHPETON ARPT    N/A     19  12  73 E5        29.91S WCI  13
$$

 *****  WEATHER ACROSS CENTRAL AND WESTERN NORTH DAKOTA  *****

CITY           SKY/WX    TMP DP  RH WIND       PRES   REMARKS
JAMESTOWN      FAIR      19  16  88 CALM      29.83S
BISMARCK       FAIR      11   8  88 NE7       29.80F WCI   0
MINOT          LGT SNOW  14   9  80 NW12      29.83R WCI   0
MINOT AFB      LGT SNOW  12   7  83 NW12      29.82S WCI  -2
GARRISON         N/A     14  11  87 NE3       29.80S
WILLISTON      LGT SNOW  11   7  84 NE8       29.82S FOG     WCI  -1
DICKINSON      MOCLDY    18  14  84 E7        29.67S WCI   9
HETTINGER      MOCLDY    16  14  92 E8        29.69S WCI   5
$$

 *****  OTHER OBSERVATIONS NORTHEAST NORTH DAKOTA  *****

CITY           SKY/WX    TMP DP  RH WIND       PRES   REMARKS
WALHALLA       NOT AVBL
LANGDON        NOT AVBL
CAVALIER         N/A     14  10  85 SW5       29.87S WCI   6
GRAFTON        FAIR      12   9  85 S9        29.90S WCI   0
CANDO          NOT AVBL
FORT TOTTEN      N/A     10   9  95 S3        29.95S
ROLLA          FAIR      10   7  85 NW10      29.81R WCI  -3
RUGBY            N/A      7   7 100 NW8       29.83S WCI  -6
 ***** THE ABOVE OBSERVATIONS ARE NON NWS ARE NOT QUALITY
        CONTROLLED AND MAY MIS-REPORT RAIN FOR SNOW...
$$

 *****  OTHER OBSERVATIONS SOUTHEAST NORTH DAKOTA *****

CITY           SKY/WX    TMP DP  RH WIND       PRES   REMARKS
COOPERSTOWN    FAIR       9   7  92 CALM      29.85F
VALLEY CITY    FAIR      18  18 100 CALM      29.86F
OAKES          NOT AVBL
GWINNER        FAIR      21  18  86 E7        29.87S WCI  13
SHEYENNE NWR     N/A     16  11  81 E5        29.95S WCI   9
BUFFALO        NOT AVBL
WYNDMERE         N/A     18  16  93 E1          N/A
 ***** THE ABOVE OBSERVATIONS ARE NON NWS ARE NOT QUALITY
       CONTROLLED AND MAY MIS-REPORT RAIN FOR SNOW...
$$

  *****  WEATHER ACROSS NORTHERN MINNESOTA  *****

CITY           SKY/WX    TMP DP  RH WIND       PRES   REMARKS
FLAG ISLAND    MOCLDY    10   3  72 S3        29.87R
WARROAD        FAIR      12   9  85 SW5       29.88R WCI   4
ROSEAU         FAIR      12   7  79 S8        29.88R WCI   1
HALLOCK        FAIR      12   9  85 S8        29.88S WCI   1
THF RVR FALLS  FAIR      10   7  87 CALM      29.90S
HALSTAD          N/A     19  16  89 SE5         N/A  WCI  12
FOSSTON        FAIR      12   9  85 SE5       29.90R WCI   4
BAUDETTE       MOCLDY     7   3  84 SW3       29.88R
WASKISH        MOCLDY     9   7  92 CALM      29.90S
CROOKSTON      FAIR      14  12  92 S5        29.92R WCI   6
$$
  *****  WEATHER ACROSS CENTRAL AND WEST MINNESOTA  *****

CITY           SKY/WX    TMP DP  RH WIND       PRES   REMARKS
BEMIDJI        FAIR       9   6  85 CALM      29.89S
PARK RAPIDS    CLOUDY    18   9  68 SE3       29.89R
WADENA         FAIR      16  10  79 E3        29.89S
DETROIT LAKES  FAIR      19  14  79 CALM      29.90R
MOORHEAD       FAIR      19  12  73 SE3       29.91S
FERGUS FALLS   FAIR      18  12  79 W6        29.94S WCI   9
ELBOW LAKE     FAIR      19  16  89 SE9       29.89S WCI   7
MORRIS MN      FAIR      21  19  93 E6        29.88S WCI  14
STAPLES        FAIR      10   9  92 CALM      29.91R
WHEATON        FAIR      19  16  86 CALM      29.91F
$$
  *****  WEATHER ELSEWHERE ACROSS MINNESOTA  *****

CITY           SKY/WX    TMP DP  RH WIND       PRES   REMARKS
DULUTH         CLOUDY    20  11  68 E3        29.92S
INTRNTL FALLS  FAIR       4  -1  80 S3        29.91S
ELY            FAIR       0  -6  78 CALM      29.93S
CLOQUET        LGT SNOW  18   9  68 SE3       29.94R
BRAINERD       CLOUDY    18  12  77 CALM      29.92R
HIBBING        CLOUDY     8   2  76 CALM      29.93R
ALEXANDRIA     FAIR      21  18  88 E7        29.89R WCI  12
SAINT CLOUD    FAIR      23  20  88 E7        29.92R WCI  15
MINNEAPOLIS    FAIR      26  19  74 S5        29.96S WCI  20
$$

  *****  WEATHER ACROSS SOUTH DAKOTA  *****

CITY           SKY/WX    TMP DP  RH WIND       PRES   REMARKS
SIOUX FALLS    FAIR      24  20  84 S5        29.90R WCI  18
BROOKINGS      FAIR      22  17  81 S8        29.87R WCI  12
WATERTOWN      MOCLDY    22  18  85 SE7       29.83S WCI  13
HURON          FAIR      21  17  84 SE7       29.85S WCI  12
SISSETON         N/A     20  18  92 CALM      29.87F
ABERDEEN       CLOUDY    21  18  88 E7        29.83F WCI  12
MITCHELL       FAIR      22  17  81 SE6       29.87F WCI  14
PIERRE         FAIR      22  16  78 SE8       29.75F WCI  12
MOBRIDGE       FAIR      23  18  81 E9        29.73F WCI  13
RAPID CITY     FAIR      16   9  74 NE3       29.63S
$$

  *****  SOME WEATHER IN NEARBY STATES *****

CITY           SKY/WX    TMP DP  RH WIND       PRES   REMARKS
GLASGOW MT     LGT SNOW  12   8  84 E8        29.76S FOG     WCI   0
GREAT FALLS MT FAIR       7   3  84 E6        29.61F FOG     WCI  -3
CHEYENNE WY    FAIR      11   3  70 SW9       29.62F WCI  -2
SCOTTSBLUFF NE FAIR      10   4  76 SE3       29.69S
OMAHA NE       FAIR      27  21  78 CALM      29.98S
DES MOINES IA  FAIR      30  25  81 S5        30.03R
DAVENPORT IA   FAIR      32  30  92 S9        30.10R WCI  24
CHICAGO IL     FAIR      35  28  75 CALM      30.15R
EAU CLAIRE WI  FAIR      22  18  85 S3        30.00R
LA CROSSE WI   FAIR      27  22  81 SE5       30.06R WCI  22
$$

  *****  SOME NATIONAL WEATHER *****

CITY           SKY/WX    TMP DP  RH WIND       PRES   REMARKS
LA GUARDIA NY  PTSUNNY   42  23  46 SW8       30.41R
RALEIGH NC     FAIR      49  23  36 S5        30.44R
ATLANTA GA     CLOUDY    50  27  40 E10       30.28R
NEW ORLEANS LA PTSUNNY   70  66  87 S12       30.07S
OKLAHOMA CITY  CLOUDY    48  45  89 S10       29.92R FOG
ALBUQUERQUE NM FAIR      32  22  66 CALM      29.94R
SALT LAKE CITY LGT SNOW  30  28  92 N10       29.64R VSB 1   WCI  21
LOS ANGELES CA MOCLDY    51  43  74 E6        29.88F
BOISE ID       CLOUDY    28  26  92 CALM      29.69R
SEATTLE WA     LGT RAIN  36  34  92 SE8       29.75S
$$

*** WEATHER ACROSS MANITOBA...SASKATCHEWAN AND ONTARIO ***
                ***ONTARIO***

CITY           SKY/WX    TMP DP  RH WIND       PRES   REMARKS
GERALDTON      MOSUNNY    0  -6  78 S3        29.95R
THUNDER BAY    PTSUNNY    5   1  85 SW2       30.02R
SIOUX LOOKOUT  MOCLDY     7   1  78 S8        29.85R WCI  -6
TORONTO        MOSUNNY   39  25  56 SW16      30.17R
BIG TROUT LK   CLEAR    -13 -17  84 SW2       29.83R
PICKLE LAKE    MOCLDY     1  -4  78 S6        29.81R WCI -10
DRYDEN         PTCLDY     7   3  85 S10       29.84R WCI  -8
KENORA         MOCLDY     7   3  85 S8        29.84R WCI  -6
$$
                *** MANITOBA***

CITY           SKY/WX    TMP DP  RH WIND       PRES   REMARKS
BRANDON        MOCLDY     1  -2  85 NW10      29.84R WCI -14
DAUPHIN        CLOUDY     3   0  85 N5        29.88S WCI  -6
ISLAND LAKE    NOT AVBL
PILOT MOUND      N/A      9   5  85 W3          N/A
THE PAS        CLOUDY   -11 -17  77 CALM      29.85S
THOMPSON       CRYSTALS -27 -33  75 W2        29.83R
WINNIPEG       MOCLDY    10   7  85 SW9       29.84R WCI  -2
LYNN LAKE      CLEAR    -31 -38  68 W8        29.79R WCI -52
CHURCHILL      CRYSTALS -29 -36  68 W9        29.80R WCI -51
GILLAM         PTCLDY   -26 -31  75 W6        29.83R WCI -42
$$
                ***SASKATCHEWAN***

CITY           SKY/WX    TMP DP  RH WIND       PRES   REMARKS
ESTEVAN        CLOUDY     3  -2  78 NW9       29.83S WCI -11
KINDERSLEY     PTCLDY    -4  -9  77 S7        29.75F WCI -18
LLOYDMINSTER   PTCLDY    -4  -8  84 SW9       29.67S WCI -20
PRINCE ALBERT  PTCLDY   -13 -18  77 CALM      29.82S
REGINA         PTCLDY    -4  -8  84 NW6       29.83S WCI -16
YORKTON        CLEAR     -8 -11  84 W9        29.83R WC



USA.gov is the U.S. government's official web portal to all federal, state and local government web resources and services.